| time (UTC) | temp C | wind direction | speed KPH | gust KPH | rain 1hr cm | rain 24hr cm | rain mn cm | humidity % | barometer mb |
| 20260510081826 | 11 | 155 | 3.2 | 4.8 | 0.00 | 0.00 | 0.00 | 99 | 1012.5 |
| 20260510081323 | 11 | 126 | 1.6 | 6.4 | 0.00 | 0.00 | 0.00 | 99 | 1012.4 |
| 20260510080819 | 11 | 191 | 1.6 | 3.2 | 0.00 | 0.00 | 0.00 | 99 | 1012.2 |
| 20260510080313 | 11 | 197 | 3.2 | 3.2 | 0.00 | 0.00 | 0.00 | 99 | 1012.2 |
| 20260510075811 | 11 | 171 | 3.2 | 6.4 | 0.00 | 0.00 | 0.00 | 99 | 1012.4 |
| 20260510075308 | 11 | 190 | 3.2 | 4.8 | 0.00 | 0.00 | 0.00 | 99 | 1012.6 |
| 20260510074805 | 11 | 174 | 1.6 | 3.2 | 0.00 | 0.00 | 0.00 | 99 | 1012.6 |
| 20260510074302 | 11 | 161 | 1.6 | 3.2 | 0.00 | 0.00 | 0.00 | 99 | 1012.6 |
| 20260510073758 | 11 | 174 | 1.6 | 3.2 | 0.00 | 0.00 | 0.00 | 99 | 1012.6 |
| 20260510073254 | 10 | 197 | 0.0 | 0.0 | 0.00 | 0.00 | 0.00 | 99 | 1012.7 |
| 20260510072750 | 11 | 188 | 0.0 | 1.6 | 0.00 | 0.00 | 0.00 | 99 | 1012.9 |
| 20260510072247 | 11 | 166 | 3.2 | 4.8 | 0.00 | 0.00 | 0.00 | 99 | 1012.7 |
| 20260510071743 | 11 | 156 | 4.8 | 9.7 | 0.00 | 0.00 | 0.00 | 99 | 1012.9 |
| 20260510071240 | 10 | 150 | 6.4 | 6.4 | 0.00 | 0.00 | 0.00 | 99 | 1012.8 |
| 20260510070739 | 10 | 165 | 1.6 | 1.6 | 0.00 | 0.00 | 0.00 | 99 | 1013.3 |
| 20260510070235 | 10 | 169 | 3.2 | 4.8 | 0.00 | 0.00 | 0.00 | 99 | 1013.2 |
| 20260510065729 | 10 | 66 | 0.0 | 1.6 | 0.00 | 0.00 | 0.00 | 99 | 1013.6 |
| 20260510065226 | 10 | 152 | 3.2 | 4.8 | 0.00 | 0.00 | 0.00 | 99 | 1013.1 |
| 20260510064723 | 10 | 38 | 1.6 | 3.2 | 0.00 | 0.00 | 0.00 | 99 | 1013.4 |
| 20260510064221 | 10 | 203 | 4.8 | 6.4 | 0.00 | 0.00 | 0.00 | 99 | 1012.9 |
| 20260510063717 | 10 | 8 | 6.4 | 9.7 | 0.00 | 0.00 | 0.00 | 99 | 1013.2 |
| 20260510063213 | 10 | 88 | 0.0 | 1.6 | 0.00 | 0.00 | 0.00 | 99 | 1012.1 |
| 20260510062710 | 10 | 122 | 0.0 | 1.6 | 0.00 | 0.00 | 0.00 | 99 | 1012.4 |
| 20260510062206 | 10 | 143 | 1.6 | 3.2 | 0.00 | 0.00 | 0.00 | 99 | 1012.1 |
| 20260510061701 | 10 | 137 | 0.0 | 1.6 | 0.00 | 0.00 | 0.00 | 99 | 1012.3 |
| 20260510061158 | 10 | 82 | 0.0 | 1.6 | 0.00 | 0.00 | 0.00 | 99 | 1012.5 |
| 20260510060655 | 10 | 131 | 0.0 | 0.0 | 0.00 | 0.00 | 0.00 | 99 | 1012.5 |
| 20260510060151 | 10 | 135 | 1.6 | 1.6 | 0.00 | 0.00 | 0.00 | 99 | 1012.7 |
| 20260510055648 | 10 | 168 | 3.2 | 3.2 | 0.00 | 0.00 | 0.00 | 99 | 1012.7 |
| 20260510055146 | 10 | 184 | 1.6 | 1.6 | 0.00 | 0.00 | 0.00 | 99 | 1012.9 |
| 20260510054641 | 10 | 191 | 1.6 | 3.2 | 0.00 | 0.00 | 0.00 | 99 | 1013.1 |
| 20260510054137 | 10 | 181 | 1.6 | 3.2 | 0.00 | 0.00 | 0.00 | 99 | 1013.2 |
| 20260510053636 | 10 | 86 | 0.0 | 0.0 | 0.00 | 0.00 | 0.00 | 99 | 1013.2 |
| 20260510053133 | 10 | 123 | 0.0 | 1.6 | 0.00 | 0.00 | 0.00 | 99 | 1013.1 |
| 20260510052629 | 9 | 129 | 0.0 | 1.6 | 0.00 | 0.00 | 0.00 | 99 | 1012.9 |
| 20260510052125 | 9 | 330 | 1.6 | 3.2 | 0.00 | 0.00 | 0.00 | 99 | 1012.4 |
| 20260510051621 | 9 | 173 | 0.0 | 0.0 | 0.00 | 0.00 | 0.00 | 99 | 1012.2 |
| 20260510051118 | 9 | 143 | 0.0 | 0.0 | 0.00 | 0.00 | 0.00 | 99 | 1012.1 |
| 20260510050615 | 9 | 238 | 0.0 | 0.0 | 0.00 | 0.00 | 0.00 | 99 | 1012.2 |
| 20260510050113 | 9 | 94 | 0.0 | 0.0 | 0.00 | 0.00 | 0.00 | 99 | 1012.3 |
| 20260510045609 | 9 | 171 | 0.0 | 0.0 | 0.00 | 0.00 | 0.00 | 99 | 1012.3 |
| 20260510045105 | 9 | 159 | 0.0 | 0.0 | 0.00 | 0.00 | 0.00 | 99 | 1012.3 |
| 20260510044602 | 9 | 253 | 0.0 | 1.6 | 0.00 | 0.00 | 0.00 | 99 | 1012.3 |
| 20260510044059 | 10 | 167 | 0.0 | 3.2 | 0.00 | 0.00 | 0.00 | 99 | 1012.4 |
| 20260510043555 | 10 | 228 | 1.6 | 3.2 | 0.00 | 0.00 | 0.00 | 99 | 1012.4 |
| 20260510043051 | 10 | 99 | 0.0 | 1.6 | 0.00 | 0.00 | 0.00 | 99 | 1012.2 |
| 20260510042545 | 9 | 175 | 0.0 | 1.6 | 0.00 | 0.00 | 0.00 | 99 | 1012.4 |
| 20260510042040 | 9 | 100 | 0.0 | 0.0 | 0.00 | 0.00 | 0.00 | 99 | 1012.3 |
| 20260510041537 | 10 | 62 | 0.0 | 1.6 | 0.00 | 0.00 | 0.00 | 99 | 1012.4 |
| 20260510041035 | 10 | 170 | 0.0 | 1.6 | 0.00 | 0.00 | 0.00 | 99 | 1012.3 |
| 20260510040531 | 10 | 118 | 0.0 | 1.6 | 0.00 | 0.00 | 0.00 | 99 | 1012.5 |
| 20260510040027 | 10 | 337 | 1.6 | 1.6 | 0.00 | 0.46 | 0.46 | 99 | 1012.5 |
| 20260510035524 | 10 | 58 | 0.0 | 0.0 | 0.00 | 0.46 | 0.46 | 99 | 1012.4 |
| 20260510035023 | 10 | 161 | 1.6 | 3.2 | 0.00 | 0.46 | 0.46 | 99 | 1012.3 |
| 20260510034522 | 10 | 82 | 1.6 | 1.6 | 0.00 | 0.46 | 0.46 | 99 | 1012.5 |
| 20260510034018 | 10 | 260 | 1.6 | 1.6 | 0.00 | 0.46 | 0.46 | 99 | 1012.5 |
| 20260510033514 | 10 | 200 | 0.0 | 1.6 | 0.00 | 0.46 | 0.46 | 99 | 1012.4 |
| 20260510033012 | 10 | 148 | 0.0 | 1.6 | 0.00 | 0.46 | 0.46 | 99 | 1012.4 |
| 20260510032509 | 10 | 177 | 0.0 | 1.6 | 0.00 | 0.46 | 0.46 | 99 | 1012.3 |
| 20260510032009 | 10 | 132 | 0.0 | 0.0 | 0.00 | 0.46 | 0.46 | 99 | 1012.2 |
| 20260510031504 | 10 | 173 | 0.0 | 1.6 | 0.00 | 0.46 | 0.46 | 99 | 1012.6 |
| 20260510031001 | 10 | 197 | 0.0 | 1.6 | 0.00 | 0.46 | 0.46 | 99 | 1012.5 |
| 20260510030456 | 10 | 119 | 0.0 | 0.0 | 0.00 | 0.46 | 0.46 | 99 | 1012.5 |
| 20260510025953 | 10 | 149 | 0.0 | 1.6 | 0.00 | 0.46 | 0.46 | 99 | 1012.4 |
| 20260510025450 | 10 | 169 | 0.0 | 0.0 | 0.00 | 0.46 | 0.46 | 99 | 1012.4 |
| 20260510024948 | 10 | 173 | 3.2 | 3.2 | 0.00 | 0.46 | 0.46 | 99 | 1012.4 |
| 20260510024444 | 10 | 215 | 0.0 | 3.2 | 0.00 | 0.46 | 0.46 | 99 | 1012.4 |
| 20260510023940 | 10 | 155 | 0.0 | 0.0 | 0.00 | 0.46 | 0.46 | 99 | 1012.2 |
| 20260510023437 | 11 | 102 | 1.6 | 1.6 | 0.00 | 0.46 | 0.46 | 99 | 1012.5 |
| 20260510022934 | 11 | 234 | 1.6 | 3.2 | 0.00 | 0.46 | 0.46 | 99 | 1012.6 |
| 20260510022433 | 11 | 222 | 1.6 | 3.2 | 0.00 | 0.46 | 0.46 | 99 | 1012.3 |
| 20260510021932 | 11 | 213 | 1.6 | 1.6 | 0.00 | 0.46 | 0.46 | 99 | 1012.2 |
| 20260510021430 | 11 | 142 | 3.2 | 3.2 | 0.00 | 0.46 | 0.46 | 99 | 1012.2 |
| 20260510020926 | 11 | 160 | 3.2 | 3.2 | 0.00 | 0.46 | 0.46 | 99 | 1012.3 |
| 20260510020421 | 11 | 162 | 3.2 | 3.2 | 0.00 | 0.46 | 0.46 | 99 | 1012.1 |
| 20260510015917 | 11 | 173 | 3.2 | 3.2 | 0.00 | 0.46 | 0.46 | 99 | 1012.0 |
| 20260510015413 | 11 | 187 | 0.0 | 1.6 | 0.00 | 0.46 | 0.46 | 99 | 1011.9 |
| 20260510014908 | 11 | 118 | 1.6 | 1.6 | 0.00 | 0.46 | 0.46 | 99 | 1012.0 |
| 20260510014406 | 11 | 184 | 0.0 | 1.6 | 0.00 | 0.46 | 0.46 | 99 | 1012.0 |
| 20260510013903 | 11 | 175 | 1.6 | 3.2 | 0.00 | 0.46 | 0.46 | 99 | 1011.7 |
| 20260510013357 | 11 | 184 | 1.6 | 3.2 | 0.00 | 0.46 | 0.46 | 99 | 1011.9 |
| 20260510012852 | 11 | 148 | 1.6 | 1.6 | 0.00 | 0.46 | 0.46 | 99 | 1011.9 |
| 20260510012348 | 11 | 181 | 0.0 | 1.6 | 0.00 | 0.46 | 0.46 | 98 | 1011.8 |
| 20260510011843 | 12 | 177 | 1.6 | 1.6 | 0.00 | 0.46 | 0.46 | 98 | 1011.7 |
| 20260510011338 | 12 | 177 | 3.2 | 3.2 | 0.00 | 0.46 | 0.46 | 97 | 1011.9 |
| 20260510010835 | 12 | 179 | 0.0 | 1.6 | 0.00 | 0.46 | 0.46 | 97 | 1011.6 |
| 20260510010332 | 12 | 148 | 0.0 | 1.6 | 0.00 | 0.46 | 0.46 | 96 | 1011.7 |
| 20260510005828 | 12 | 164 | 0.0 | 1.6 | 0.00 | 0.46 | 0.46 | 96 | 1011.8 |
| 20260510005325 | 12 | 194 | 0.0 | 0.0 | 0.00 | 0.46 | 0.46 | 96 | 1011.6 |
| 20260510004823 | 12 | 186 | 0.0 | 1.6 | 0.00 | 0.46 | 0.46 | 95 | 1011.6 |
| 20260510004320 | 12 | 177 | 0.0 | 1.6 | 0.00 | 0.46 | 0.46 | 95 | 1011.6 |
| 20260510003818 | 13 | 157 | 0.0 | 3.2 | 0.00 | 0.46 | 0.46 | 94 | 1011.6 |
| 20260510003315 | 13 | 222 | 1.6 | 3.2 | 0.00 | 0.46 | 0.46 | 93 | 1011.6 |
| 20260510002813 | 13 | 212 | 1.6 | 1.6 | 0.00 | 0.46 | 0.46 | 91 | 1011.4 |
| 20260510002311 | 13 | 117 | 1.6 | 3.2 | 0.00 | 0.46 | 0.46 | 90 | 1011.2 |
| 20260510001807 | 13 | 130 | 1.6 | 1.6 | 0.00 | 0.46 | 0.46 | 90 | 1011.3 |
| 20260510001305 | 14 | 134 | 0.0 | 1.6 | 0.00 | 0.46 | 0.46 | 88 | 1011.3 |
| 20260510000801 | 14 | 169 | 1.6 | 3.2 | 0.00 | 0.46 | 0.46 | 87 | 1011.1 |
| 20260510000259 | 14 | 148 | 0.0 | 0.0 | 0.00 | 0.46 | 0.46 | 85 | 1011.2 |
| 20260509235756 | 15 | 164 | 1.6 | 1.6 | 0.00 | 0.46 | 0.46 | 84 | 1011.2 |
| 20260509235252 | 15 | 148 | 0.0 | 1.6 | 0.00 | 0.46 | 0.46 | 82 | 1011.0 |
| 20260509234747 | 15 | 170 | 0.0 | 1.6 | 0.00 | 0.46 | 0.46 | 82 | 1011.1 |
| 20260509234245 | 15 | 140 | 1.6 | 3.2 | 0.00 | 0.46 | 0.46 | 81 | 1010.9 |
| 20260509233743 | 16 | 154 | 0.0 | 3.2 | 0.00 | 0.46 | 0.46 | 80 | 1010.8 |
| 20260509233240 | 16 | 143 | 0.0 | 1.6 | 0.00 | 0.46 | 0.46 | 78 | 1010.8 |
| 20260509232736 | 16 | 147 | 1.6 | 3.2 | 0.00 | 0.46 | 0.46 | 78 | 1010.8 |
| 20260509232233 | 16 | 176 | 1.6 | 4.8 | 0.00 | 0.46 | 0.46 | 78 | 1011.0 |
| 20260509231729 | 16 | 187 | 1.6 | 3.2 | 0.00 | 0.46 | 0.46 | 76 | 1011.0 |
| 20260509231227 | 17 | 118 | 3.2 | 4.8 | 0.00 | 0.46 | 0.46 | 74 | 1010.8 |
| 20260509230724 | 17 | 213 | 3.2 | 4.8 | 0.00 | 0.46 | 0.46 | 73 | 1011.1 |
| 20260509230221 | 18 | 134 | 3.2 | 3.2 | 0.00 | 0.46 | 0.46 | 72 | 1011.0 |
| 20260509225716 | 18 | 263 | 0.0 | 3.2 | 0.00 | 0.46 | 0.46 | 72 | 1011.1 |
| 20260509225212 | 18 | 227 | 0.0 | 3.2 | 0.00 | 0.46 | 0.46 | 73 | 1010.9 |
| 20260509224708 | 18 | 267 | 1.6 | 4.8 | 0.00 | 0.46 | 0.46 | 72 | 1010.8 |
| 20260509224205 | 18 | 303 | 0.0 | 3.2 | 0.00 | 0.46 | 0.46 | 71 | 1011.0 |
| 20260509223702 | 18 | 327 | 1.6 | 1.6 | 0.00 | 0.46 | 0.46 | 69 | 1011.1 |
| 20260509223154 | 17 | 299 | 3.2 | 4.8 | 0.00 | 0.46 | 0.46 | 69 | 1010.8 |
| 20260509222651 | 17 | 320 | 1.6 | 6.4 | 0.00 | 0.46 | 0.46 | 70 | 1010.8 |
| 20260509222146 | 18 | 11 | 3.2 | 3.2 | 0.00 | 0.46 | 0.46 | 68 | 1010.9 |
| 20260509221642 | 18 | 334 | 1.6 | 6.4 | 0.00 | 0.46 | 0.46 | 69 | 1010.7 |
| 20260509221138 | 18 | 306 | 3.2 | 4.8 | 0.00 | 0.46 | 0.46 | 70 | 1010.7 |
| 20260509220634 | 18 | 333 | 1.6 | 1.6 | 0.00 | 0.46 | 0.46 | 72 | 1010.9 |
| 20260509220130 | 16 | 238 | 1.6 | 6.4 | 0.00 | 0.46 | 0.46 | 76 | 1011.0 |
| 20260509215627 | 17 | 224 | 6.4 | 6.4 | 0.00 | 0.46 | 0.46 | 74 | 1011.1 |
| 20260509215123 | 16 | 289 | 1.6 | 3.2 | 0.00 | 0.46 | 0.46 | 79 | 1011.1 |
| 20260509214621 | 16 | 262 | 1.6 | 9.7 | 0.00 | 0.46 | 0.46 | 79 | 1011.1 |
| 20260509214117 | 16 | 221 | 3.2 | 9.7 | 0.00 | 0.46 | 0.46 | 77 | 1011.2 |
| 20260509213613 | 16 | 242 | 3.2 | 6.4 | 0.00 | 0.46 | 0.46 | 80 | 1011.3 |
| 20260509213109 | 16 | 198 | 4.8 | 4.8 | 0.00 | 0.46 | 0.46 | 79 | 1011.5 |
| 20260509212607 | 16 | 270 | 1.6 | 4.8 | 0.00 | 0.46 | 0.46 | 78 | 1011.7 |
| 20260509212104 | 16 | 262 | 0.0 | 3.2 | 0.00 | 0.46 | 0.46 | 79 | 1011.6 |
| 20260509211600 | 15 | 314 | 3.2 | 4.8 | 0.00 | 0.46 | 0.46 | 81 | 1011.8 |
| 20260509211057 | 15 | 316 | 3.2 | 3.2 | 0.00 | 0.46 | 0.46 | 81 | 1011.7 |
| 20260509210553 | 15 | 286 | 1.6 | 1.6 | 0.00 | 0.46 | 0.46 | 82 | 1011.3 |
| 20260509210050 | 15 | 246 | 0.0 | 1.6 | 0.00 | 0.46 | 0.46 | 81 | 1011.4 |
| 20260509205544 | 15 | 178 | 0.0 | 1.6 | 0.00 | 0.46 | 0.46 | 81 | 1011.3 |
| 20260509205040 | 16 | 76 | 0.0 | 0.0 | 0.00 | 0.46 | 0.46 | 81 | 1011.3 |
| 20260509204536 | 15 | 36 | 0.0 | 1.6 | 0.00 | 0.46 | 0.46 | 82 | 1011.4 |
| 20260509204032 | 15 | 304 | 1.6 | 3.2 | 0.00 | 0.46 | 0.46 | 82 | 1011.4 |
| 20260509203528 | 15 | 248 | 0.0 | 1.6 | 0.00 | 0.46 | 0.46 | 82 | 1011.6 |
| 20260509203027 | 15 | 338 | 0.0 | 1.6 | 0.00 | 0.46 | 0.46 | 81 | 1011.7 |
| 20260509202526 | 15 | 343 | 3.2 | 4.8 | 0.00 | 0.46 | 0.46 | 81 | 1011.6 |
| 20260509202022 | 15 | 241 | 0.0 | 1.6 | 0.00 | 0.46 | 0.46 | 81 | 1011.7 |
| 20260509201517 | 15 | 357 | 4.8 | 6.4 | 0.00 | 0.46 | 0.46 | 80 | 1011.7 |
| 20260509201015 | 16 | 304 | 1.6 | 4.8 | 0.00 | 0.46 | 0.46 | 80 | 1011.9 |
| 20260509200510 | 16 | 22 | 3.2 | 6.4 | 0.00 | 0.46 | 0.46 | 81 | 1011.8 |
| 20260509200006 | 16 | 331 | 1.6 | 6.4 | 0.00 | 0.46 | 0.46 | 80 | 1011.8 |
| 20260509195501 | 17 | 323 | 4.8 | 4.8 | 0.00 | 0.46 | 0.46 | 78 | 1012.1 |
| 20260509194956 | 17 | 311 | 4.8 | 4.8 | 0.00 | 0.46 | 0.46 | 78 | 1012.0 |
| 20260509194452 | 17 | 302 | 1.6 | 9.7 | 0.00 | 0.46 | 0.46 | 77 | 1012.1 |
| 20260509193949 | 17 | 297 | 3.2 | 11.3 | 0.00 | 0.46 | 0.46 | 77 | 1012.0 |
| 20260509193449 | 16 | 305 | 3.2 | 4.8 | 0.00 | 0.46 | 0.46 | 78 | 1012.0 |
| 20260509192945 | 16 | 299 | 6.4 | 6.4 | 0.00 | 0.46 | 0.46 | 77 | 1012.1 |
| 20260509192442 | 16 | 298 | 6.4 | 11.3 | 0.00 | 0.46 | 0.46 | 78 | 1012.1 |
| 20260509191937 | 17 | 359 | 6.4 | 6.4 | 0.00 | 0.46 | 0.46 | 79 | 1012.2 |
| 20260509191432 | 16 | 38 | 1.6 | 4.8 | 0.00 | 0.46 | 0.46 | 83 | 1012.1 |
| 20260509190929 | 16 | 355 | 1.6 | 1.6 | 0.00 | 0.46 | 0.46 | 84 | 1012.1 |
| 20260509190426 | 16 | 269 | 0.0 | 4.8 | 0.00 | 0.46 | 0.46 | 86 | 1012.3 |
| 20260509185924 | 15 | 270 | 1.6 | 3.2 | 0.00 | 0.46 | 0.46 | 90 | 1012.3 |
| 20260509185421 | 15 | 241 | 3.2 | 4.8 | 0.00 | 0.46 | 0.46 | 93 | 1012.5 |
| 20260509184917 | 14 | 216 | 0.0 | 3.2 | 0.00 | 0.46 | 0.46 | 94 | 1012.4 |
| 20260509184415 | 15 | 126 | 3.2 | 4.8 | 0.00 | 0.46 | 0.46 | 94 | 1012.5 |
| 20260509183911 | 13 | 157 | 0.0 | 1.6 | 0.00 | 0.46 | 0.46 | 98 | 1012.4 |
| 20260509183406 | 13 | 85 | 3.2 | 4.8 | 0.00 | 0.46 | 0.46 | 96 | 1012.5 |
| 20260509182902 | 12 | 54 | 0.0 | 3.2 | 0.00 | 0.46 | 0.46 | 97 | 1012.7 |
| 20260509182359 | 12 | 151 | 3.2 | 4.8 | 0.00 | 0.46 | 0.46 | 97 | 1012.8 |
| 20260509181857 | 12 | 177 | 0.0 | 1.6 | 0.00 | 0.46 | 0.46 | 97 | 1012.9 |
| 20260509181354 | 12 | 184 | 0.0 | 1.6 | 0.18 | 0.46 | 0.46 | 98 | 1012.9 |
| 20260509180851 | 12 | 180 | 1.6 | 1.6 | 0.18 | 0.46 | 0.46 | 98 | 1013.0 |
| 20260509180346 | 12 | 298 | 1.6 | 3.2 | 0.00 | 0.43 | 0.43 | 98 | 1012.9 |
| 20260509175844 | 12 | 244 | 1.6 | 3.2 | 0.00 | 0.43 | 0.43 | 98 | 1013.1 |
| 20260509175340 | 12 | 233 | 0.0 | 1.6 | 0.13 | 0.43 | 0.43 | 98 | 1013.2 |
| 20260509174836 | 12 | 243 | 1.6 | 3.2 | 0.13 | 0.43 | 0.43 | 98 | 1012.9 |
| 20260509174332 | 12 | 320 | 1.6 | 1.6 | 0.00 | 0.41 | 0.41 | 98 | 1013.2 |
| 20260509173828 | 11 | 234 | 3.2 | 4.8 | 0.00 | 0.41 | 0.41 | 97 | 1013.1 |
| 20260509173323 | 11 | 233 | 3.2 | 3.2 | 0.18 | 0.41 | 0.41 | 97 | 1013.1 |
| 20260509172820 | 12 | 186 | 3.2 | 4.8 | 0.00 | 0.38 | 0.38 | 97 | 1013.0 |
| 20260509172317 | 12 | 218 | 1.6 | 1.6 | 0.00 | 0.38 | 0.38 | 97 | 1013.0 |
| 20260509171813 | 12 | 221 | 1.6 | 1.6 | 0.00 | 0.38 | 0.38 | 97 | 1012.9 |
| 20260509171308 | 12 | 260 | 0.0 | 0.0 | 0.00 | 0.38 | 0.38 | 97 | 1012.9 |
| 20260509170805 | 11 | 281 | 0.0 | 3.2 | 0.00 | 0.38 | 0.38 | 97 | 1013.0 |
| 20260509170301 | 11 | 229 | 1.6 | 3.2 | 0.13 | 0.38 | 0.38 | 97 | 1012.9 |
| 20260509165800 | 11 | 225 | 1.6 | 3.2 | 0.13 | 0.38 | 0.38 | 97 | 1013.1 |
| 20260509165255 | 11 | 252 | 0.0 | 3.2 | 0.00 | 0.36 | 0.36 | 98 | 1013.3 |
| 20260509164751 | 11 | 271 | 0.0 | 1.6 | 0.00 | 0.36 | 0.36 | 98 | 1013.1 |
| 20260509164242 | 11 | 258 | 0.0 | 3.2 | 0.00 | 0.36 | 0.36 | 97 | 1013.2 |
| 20260509163744 | 12 | 215 | 0.0 | 0.0 | 0.18 | 0.36 | 0.36 | 97 | 1012.9 |
| 20260509163235 | 11 | 220 | 0.0 | 0.0 | 0.18 | 0.36 | 0.36 | 97 | 1013.0 |
| 20260509162734 | 11 | 262 | 0.0 | 1.6 | 0.00 | 0.33 | 0.33 | 97 | 1012.9 |
| 20260509162228 | 11 | 319 | 1.6 | 1.6 | 0.30 | 0.33 | 0.33 | 97 | 1012.9 |
| 20260509161724 | 11 | 103 | 0.0 | 0.0 | 0.18 | 0.30 | 0.30 | 96 | 1013.0 |
| 20260509161220 | 11 | 190 | 1.6 | 1.6 | 0.30 | 0.28 | 0.28 | 96 | 1013.1 |
| 20260509160715 | 12 | 5 | 0.0 | 0.0 | 0.48 | 0.25 | 0.25 | 96 | 1013.3 |
| 20260509160212 | 12 | 281 | 1.6 | 3.2 | 0.61 | 0.23 | 0.23 | 95 | 1013.6 |
| 20260509155707 | 12 | 274 | 1.6 | 3.2 | 0.48 | 0.18 | 0.18 | 94 | 1013.9 |
| 20260509155204 | 12 | 255 | 1.6 | 3.2 | 0.30 | 0.13 | 0.13 | 93 | 1013.5 |
| 20260509154700 | 12 | 260 | 1.6 | 1.6 | 0.30 | 0.10 | 0.10 | 92 | 1013.6 |
| 20260509154157 | 12 | 320 | 3.2 | 3.2 | 0.18 | 0.08 | 0.08 | 90 | 1013.6 |
| 20260509153654 | 12 | 266 | 3.2 | 4.8 | 0.13 | 0.05 | 0.05 | 90 | 1013.7 |
| 20260509153151 | 12 | 253 | 3.2 | 3.2 | 0.13 | 0.05 | 0.05 | 89 | 1013.8 |
| 20260509152646 | 13 | 227 | 3.2 | 4.8 | 0.00 | 0.03 | 0.03 | 87 | 1013.8 |
| 20260509152144 | 13 | 255 | 3.2 | 6.4 | 0.18 | 0.03 | 0.03 | 86 | 1013.7 |
| 20260509151640 | 13 | 224 | 3.2 | 4.8 | 0.18 | 0.03 | 0.03 | 83 | 1013.7 |
| 20260509151137 | 13 | 35 | 3.2 | 4.8 | 0.00 | 0.00 | 0.00 | 82 | 1013.7 |
| 20260509150636 | 13 | 235 | 6.4 | 11.3 | 0.00 | 0.00 | 0.00 | 80 | 1013.8 |
| 20260509150134 | 13 | 210 | 4.8 | 6.4 | 0.00 | 0.00 | 0.00 | 79 | 1013.8 |
| 20260509145630 | 13 | 309 | 1.6 | 11.3 | 0.00 | 0.00 | 0.00 | 79 | 1013.6 |
| 20260509145125 | 14 | 215 | 8.0 | 11.3 | 0.00 | 0.00 | 0.00 | 77 | 1013.6 |
| 20260509144621 | 14 | 246 | 6.4 | 6.4 | 0.00 | 0.00 | 0.00 | 76 | 1013.7 |
| 20260509144119 | 13 | 292 | 1.6 | 11.3 | 0.00 | 0.00 | 0.00 | 78 | 1013.7 |
| 20260509143616 | 13 | 241 | 6.4 | 9.7 | 0.00 | 0.00 | 0.00 | 76 | 1013.6 |
| 20260509143114 | 13 | 226 | 4.8 | 6.4 | 0.00 | 0.00 | 0.00 | 76 | 1013.4 |
| 20260509142608 | 13 | 298 | 3.2 | 9.7 | 0.00 | 0.00 | 0.00 | 75 | 1013.3 |
| 20260509142105 | 13 | 226 | 3.2 | 9.7 | 0.00 | 0.00 | 0.00 | 75 | 1013.3 |
| 20260509141601 | 13 | 269 | 3.2 | 6.4 | 0.00 | 0.00 | 0.00 | 78 | 1013.3 |
| 20260509141058 | 13 | 262 | 4.8 | 9.7 | 0.00 | 0.00 | 0.00 | 76 | 1013.3 |
| 20260509140555 | 13 | 271 | 3.2 | 6.4 | 0.00 | 0.00 | 0.00 | 79 | 1013.1 |
| 20260509140053 | 13 | 211 | 3.2 | 9.7 | 0.00 | 0.00 | 0.00 | 79 | 1013.1 |
| 20260509135550 | 13 | 263 | 3.2 | 9.7 | 0.00 | 0.00 | 0.00 | 78 | 1012.9 |
| 20260509135047 | 14 | 237 | 1.6 | 3.2 | 0.00 | 0.00 | 0.00 | 79 | 1012.6 |
| 20260509134544 | 13 | 261 | 3.2 | 4.8 | 0.00 | 0.00 | 0.00 | 78 | 1012.7 |
| 20260509134042 | 13 | 318 | 1.6 | 3.2 | 0.00 | 0.00 | 0.00 | 77 | 1012.6 |
| 20260509133538 | 13 | 298 | 1.6 | 6.4 | 0.00 | 0.00 | 0.00 | 78 | 1012.9 |
| 20260509133036 | 13 | 269 | 0.0 | 9.7 | 0.00 | 0.00 | 0.00 | 78 | 1012.9 |
| 20260509132534 | 13 | 302 | 4.8 | 6.4 | 0.00 | 0.00 | 0.00 | 77 | 1013.0 |
| 20260509132032 | 13 | 226 | 4.8 | 6.4 | 0.00 | 0.00 | 0.00 | 77 | 1013.1 |
| 20260509131528 | 13 | 245 | 3.2 | 6.4 | 0.00 | 0.00 | 0.00 | 75 | 1012.9 |
| 20260509131025 | 13 | 237 | 4.8 | 12.9 | 0.00 | 0.00 | 0.00 | 75 | 1013.0 |
| 20260509130520 | 13 | 252 | 3.2 | 4.8 | 0.00 | 0.00 | 0.00 | 75 | 1013.0 |
| 20260509130017 | 13 | 264 | 4.8 | 9.7 | 0.00 | 0.00 | 0.00 | 75 | 1012.8 |
| 20260509125514 | 13 | 203 | 4.8 | 9.7 | 0.00 | 0.00 | 0.00 | 75 | 1013.0 |
| 20260509125010 | 13 | 228 | 6.4 | 9.7 | 0.00 | 0.00 | 0.00 | 74 | 1012.8 |
| 20260509124507 | 13 | 178 | 6.4 | 11.3 | 0.00 | 0.00 | 0.00 | 74 | 1012.9 |
| 20260509124004 | 13 | 289 | 1.6 | 3.2 | 0.00 | 0.00 | 0.00 | 82 | 1013.0 |
| 20260509123502 | 12 | 334 | 4.8 | 4.8 | 0.00 | 0.00 | 0.00 | 85 | 1012.9 |
| 20260509122958 | 12 | 18 | 1.6 | 3.2 | 0.00 | 0.00 | 0.00 | 85 | 1012.8 |
| 20260509122455 | 12 | 76 | 0.0 | 1.6 | 0.00 | 0.00 | 0.00 | 86 | 1012.6 |
| 20260509121951 | 12 | 0 | 1.6 | 1.6 | 0.00 | 0.00 | 0.00 | 86 | 1012.7 |
| 20260509121448 | 12 | 31 | 1.6 | 1.6 | 0.00 | 0.00 | 0.00 | 87 | 1012.7 |
| 20260509120946 | 11 | 41 | 0.0 | 1.6 | 0.00 | 0.00 | 0.00 | 88 | 1012.7 |
| 20260509120444 | 11 | 356 | 3.2 | 3.2 | 0.00 | 0.00 | 0.00 | 88 | 1012.6 |
| 20260509115942 | 11 | 92 | 0.0 | 1.6 | 0.00 | 0.00 | 0.00 | 89 | 1013.0 |
| 20260509115439 | 11 | 51 | 0.0 | 3.2 | 0.00 | 0.00 | 0.00 | 89 | 1013.0 |
| 20260509114936 | 11 | 82 | 3.2 | 3.2 | 0.00 | 0.00 | 0.00 | 89 | 1012.9 |
| 20260509114435 | 11 | 123 | 0.0 | 0.0 | 0.00 | 0.00 | 0.00 | 89 | 1012.8 |
| 20260509113934 | 11 | 72 | 0.0 | 1.6 | 0.00 | 0.00 | 0.00 | 89 | 1012.7 |
| 20260509113431 | 11 | 27 | 1.6 | 1.6 | 0.00 | 0.00 | 0.00 | 89 | 1012.7 |
| 20260509112927 | 11 | 36 | 1.6 | 1.6 | 0.00 | 0.00 | 0.00 | 89 | 1012.6 |
| 20260509112425 | 11 | 122 | 1.6 | 1.6 | 0.00 | 0.00 | 0.00 | 89 | 1012.8 |
| 20260509111921 | 10 | 169 | 0.0 | 0.0 | 0.00 | 0.00 | 0.00 | 89 | 1012.9 |
| 20260509111419 | 10 | 61 | 0.0 | 0.0 | 0.00 | 0.00 | 0.00 | 90 | 1012.9 |
| 20260509110916 | 10 | 28 | 0.0 | 1.6 | 0.00 | 0.00 | 0.00 | 90 | 1012.6 |
| 20260509110411 | 10 | 349 | 1.6 | 1.6 | 0.00 | 0.00 | 0.00 | 90 | 1012.6 |
| 20260509105910 | 10 | 33 | 0.0 | 1.6 | 0.00 | 0.00 | 0.00 | 90 | 1012.6 |
| 20260509105408 | 10 | 123 | 0.0 | 1.6 | 0.00 | 0.00 | 0.00 | 90 | 1012.4 |
| 20260509104905 | 10 | 9 | 1.6 | 3.2 | 0.00 | 0.00 | 0.00 | 89 | 1012.4 |
| 20260509104402 | 10 | 0 | 1.6 | 1.6 | 0.00 | 0.00 | 0.00 | 89 | 1012.6 |
| 20260509103859 | 10 | 225 | 0.0 | 3.2 | 0.00 | 0.00 | 0.00 | 89 | 1012.6 |
| 20260509103356 | 10 | 4 | 0.0 | 1.6 | 0.00 | 0.00 | 0.00 | 88 | 1012.3 |
| 20260509102855 | 10 | 357 | 1.6 | 3.2 | 0.00 | 0.00 | 0.00 | 89 | 1011.9 |
| 20260509102352 | 10 | 45 | 0.0 | 1.6 | 0.00 | 0.00 | 0.00 | 89 | 1012.2 |
| 20260509101847 | 10 | 109 | 1.6 | 1.6 | 0.00 | 0.00 | 0.00 | 90 | 1012.2 |
| 20260509101344 | 10 | 165 | 1.6 | 1.6 | 0.00 | 0.00 | 0.00 | 90 | 1012.0 |
| 20260509100842 | 10 | 125 | 0.0 | 1.6 | 0.00 | 0.00 | 0.00 | 90 | 1012.3 |
| 20260509100339 | 10 | 328 | 1.6 | 1.6 | 0.00 | 0.00 | 0.00 | 90 | 1012.3 |
| 20260509095836 | 10 | 72 | 0.0 | 1.6 | 0.00 | 0.00 | 0.00 | 90 | 1012.1 |
| 20260509095333 | 10 | 149 | 0.0 | 1.6 | 0.00 | 0.00 | 0.00 | 90 | 1012.1 |
| 20260509094830 | 10 | 135 | 0.0 | 0.0 | 0.00 | 0.00 | 0.00 | 89 | 1012.3 |
| 20260509094326 | 10 | 164 | 0.0 | 0.0 | 0.00 | 0.00 | 0.00 | 89 | 1012.2 |
| 20260509093824 | 10 | 180 | 0.0 | 1.6 | 0.00 | 0.00 | 0.00 | 89 | 1012.3 |
| 20260509093321 | 10 | 184 | 1.6 | 1.6 | 0.00 | 0.00 | 0.00 | 88 | 1012.5 |
| 20260509092820 | 10 | 105 | 0.0 | 1.6 | 0.00 | 0.00 | 0.00 | 88 | 1012.4 |
| 20260509092317 | 10 | 88 | 1.6 | 1.6 | 0.00 | 0.00 | 0.00 | 89 | 1012.3 |
| 20260509091815 | 10 | 121 | 0.0 | 0.0 | 0.00 | 0.00 | 0.00 | 88 | 1012.5 |
| 20260509091312 | 10 | 191 | 1.6 | 1.6 | 0.00 | 0.00 | 0.00 | 88 | 1012.5 |
| 20260509090809 | 10 | 159 | 0.0 | 1.6 | 0.00 | 0.00 | 0.00 | 88 | 1012.6 |
| 20260509090306 | 10 | 92 | 1.6 | 3.2 | 0.00 | 0.00 | 0.00 | 88 | 1012.6 |
| 20260509085803 | 10 | 74 | 0.0 | 1.6 | 0.00 | 0.00 | 0.00 | 88 | 1012.7 |
| 20260509085301 | 10 | 95 | 0.0 | 0.0 | 0.00 | 0.00 | 0.00 | 89 | 1012.6 |
| 20260509084757 | 10 | 49 | 1.6 | 1.6 | 0.00 | 0.00 | 0.00 | 89 | 1012.5 |
| 20260509084254 | 10 | 344 | 1.6 | 1.6 | 0.00 | 0.00 | 0.00 | 89 | 1012.7 |
| 20260509083752 | 10 | 156 | 0.0 | 3.2 | 0.00 | 0.00 | 0.00 | 88 | 1012.7 |
| 20260509083248 | 10 | 194 | 0.0 | 3.2 | 0.00 | 0.00 | 0.00 | 86 | 1012.6 |
| 20260509082745 | 10 | 323 | 1.6 | 3.2 | 0.00 | 0.00 | 0.00 | 85 | 1012.9 |
| 20260509082241 | 11 | 86 | 0.0 | 4.8 | 0.00 | 0.00 | 0.00 | 85 | 1013.0 |